sat.trackr.live / text

‹ back to catalog

STARLINK-4189

NORAD 52853 · 2022-062Z

PAYLOAD ACTIVE UNKNOWN

§ Identity

Operator
Country
US
Launch date
2022-06-17
Launch site
AFETR
Launch vehicle
Mass (kg)
RCS (m²)

Purposes: comms

External: N2YO · Heavens-Above · Gunter

§ Orbital elements

Epoch: 2026-05-25T03:01:06.216960Z

Period
95.31 min
Inclination
53.2183°
Eccentricity
0.0001643
Mean motion
15.10788286 rev/d
Perigee alt
532.7 km
Apogee alt
534.9 km
Semi-major
6,911.9 km
B*
8.2514e-3
RAAN
40.8675°
Arg perigee
89.6907°
Mean anomaly
270.4274°
Rev number
21,746

§ Raw data

STARLINK-41891 52853U 22062Z   26145.12576640  .00141033  00000+0  82514-2 0  99972 52853  53.2183  40.8675 0001643  89.6907 270.4274 15.10788286217462

JSON: /api/v1/satellites/52853 · /tle

For live sub-satellite position, see the globe view (requires WebGL).

§ Visibility from observer

Set your observer location to see the next 7 days of passes ≥ 10°. The values pass through the URL so the page stays shareable.

No JS? Fill the form by hand. The geolocation button needs JavaScript.